Weather in Mlawa

Poland     53°07′07″N   20°22′02″E
temp.,
°C
wind,
m/s
gust,
m/s
humid.,
%
clouds,
%
prec.,
mm/h
press.,
hPa
HPBL,
m
28 september, tue
tue2823:00+9ese5117750 0.0 1023266
02:00+8ese4108635 0.0 1024231
05:00+7ese41093100 0.0 1024235
08:00+8ese51086100 0.0 1024310
11:00+13se6862100 0.0 1025662
14:00+15se6751100 0.0 10251037
17:00+14se5756100 0.0 1025622
20:00+11ese4107098 0.0 1026237
29 september, wed
wed2923:00+9ese5127568 0.0 1027305
02:00+8ese5117819 0.0 1027257
05:00+7ese5128419 0.0 1026243
08:00+8ese512827 0.0 1026349
11:00+14se8115578 0.0 1025939
14:00+16se9114698 0.0 10231361
17:00+16se8125096 0.0 10221162
20:00+13se71557100 0.0 1022651
30 september, thu
thu3023:00+13se71457100 0.0 1022595
02:00+11se61274100 0.4 1022447
05:00+11s5989100 1.4 1022406
08:00+13wsw3795100 1.9 1024467
11:00+13w5664100 0.1 1026629
14:00+16wsw5648100 0.1 10261259
17:00+14wsw4651100 0.0 1027564
20:00+10sw2263100 0.0 102919
1 october, fri
fri123:00+9wsw2265100 0.0 103017
02:00+7wsw11700 0.0 103010
05:00+7s22712 0.0 103010
08:00+8sse236878 0.0 103074
11:00+14sse344882 0.0 1029672
14:00+16sse4538100 0.0 10281328
17:00+15sse465727 0.0 1026353
20:00+11se498451 0.0 1026176
2 october, sat
sat223:00+9se498975 0.0 1025175
02:00+8se498294 0.0 1024154
05:00+8se4886100 0.0 1022155
08:00+9se4108464 0.0 1021238
11:00+16sse685955 0.0 1020520
14:00+19s795024 0.0 10181405
17:00+18s595129 0.0 1018453
20:00+13sse41176100 0.0 1018209